Location: Astronomy Club of Akron Observatory
(40.9700°N, 81.5606°W)
Time: 18:21:50
(UTC-04:00)

Daily predictions for brighter satellites

Satellite Brightness Start Highest point End
(mag) Time Altitude Azimuth Time Altitude Azimuth Time Altitude Azimuth
Resurs 01 Rocket 4.3 21:17:17 10° SW 21:20:35 21° W 21:23:54 10° NW
Cosmos 1624 Rocket 4.3 21:16:47 10° S 21:21:48 47° ESE 21:26:52 10° NNE
Envisat 3.6 21:18:11 10° SE 21:22:52 39° ENE 21:27:35 10° N
BREEZE-M DEB (TANK) 1.6 21:21:45 10° WNW 21:23:42 83° SSW 21:26:38 10° SE
Atlas Centaur 2 2.9 21:21:59 10° SSW 21:24:02 15° S 21:26:09 10° SE
Cosmos 1782 3.9 21:20:47 10° NNE 21:24:20 29° ENE 21:27:52 10° SE
Cosmos 1939 Rocket 3.4 21:21:37 10° SE 21:25:14 40° ENE 21:28:54 10° N
Okean 1-7 3.6 21:22:33 10° NNW 21:26:47 59° W 21:31:01 10° S
SJ-11-01 4.3 21:25:17 10° SSE 21:30:00 70° ENE 21:34:45 10° N
NOSS 2-2 (E) 3.5 21:28:05 10° SSW 21:32:09 63° ESE 21:36:52 10° NE
Cosmos 1461 3.8 21:28:08 10° SW 21:32:46 62° NW 21:37:18 10° NNE
Meteor 2-10 Rocket 3.8 21:27:55 10° N 21:33:46 75° E 21:39:27 10° SSE
SPOT 5 3.8 21:29:17 10° SE 21:34:04 37° ENE 21:38:58 10° N
ALOS 3.6 21:30:07 10° S 21:34:31 41° W 21:38:58 10° NNW
ERBS 2.7 21:31:51 10° NW 21:35:17 57° NE 21:38:23 12° ESE
Cosmos 1674 Rocket 4.0 21:33:09 10° N 21:37:26 44° ENE 21:41:41 10° SSE
Cosmos 1606 4.0 21:35:16 10° NNE 21:38:33 25° ENE 21:41:22 12° SE
Cosmos 407 Rocket 4.2 21:35:33 10° N 21:40:30 40° ENE 21:45:03 12° SE
Cosmos 1892 2.8 21:41:48 10° S 21:45:36 81° W 21:49:28 10° N
Cosmos 1452 Rocket 4.4 21:41:17 10° SSE 21:45:47 30° E 21:50:18 10° NE
ERS-1 Rocket 3.1 21:43:51 10° S 21:48:53 79° WSW 21:53:57 10° NNW
Cosmos 909 Rocket 4.3 21:44:28 10° SSW 21:50:56 90° WSW 21:58:46 10° NNE
OPS 6432 4.2 21:47:45 10° SSW 21:51:16 77° SE 21:54:23 10° NE
Cosmos 1190 Rocket 4.1 21:47:02 10° NNW 21:52:12 63° ENE 21:56:41 14° SSE
PSLV R/B 3.5 21:53:02 10° W 21:56:27 60° SSW 21:58:46 19° ESE
Meteor 2-6 Rocket 4.3 21:51:13 10° N 21:57:12 73° E 22:03:01 10° SSE
Coronas F rocket 3.0 21:59:17 10° SSW 22:01:45 34° W 22:04:13 10° N
Abrixas rocket 4.0 21:59:05 10° W 22:01:54 24° SW 22:04:01 14° S
Okean 3 4.4 22:00:13 10° NNE 22:04:05 32° ENE 22:06:19 20° SE
Cosmos 1975 Rocket 4.1 22:01:57 10° NNE 22:05:42 28° ENE 22:07:44 20° ESE
USA 234 3.9 22:01:01 10° ENE 22:06:39 30° SE 22:12:14 10° S
Cosmos 2154 Rocket 4.0 22:00:38 10° S 22:06:44 61° E 22:12:50 10° NNE
deb Chang Zheng 4 3.8 22:05:09 10° N 22:09:33 75° WNW 22:13:58 10° SSW
BREEZE-M DEB (TANK) 3.9 22:07:29 10° W 22:10:01 45° NNW 22:15:43 10° ENE
CZ-4B R/B 4.0 22:06:16 10° NNE 22:10:53 37° E 22:13:59 18° SSE
MetOp-B 4.2 22:07:40 16° SSE 22:11:58 68° ENE 22:17:17 10° N
SL-8 R/B 3.9 22:07:23 10° WSW 22:12:13 74° NNW 22:17:02 10° ENE
Cosmos 1908 Rocket 3.5 22:10:37 10° S 22:14:57 70° E 22:19:22 10° NNE
COSMOS 2406 3.6 22:09:41 10° NNW 22:15:21 62° WSW 22:20:21 13° S
Cosmos 1733 Rocket 4.2 22:15:54 10° SSW 22:20:07 44° WNW 22:24:21 10° N
USA 245 3.3 22:19:18 31° ESE 22:20:18 43° ENE 22:23:48 10° N
SL-08 RB Rocket 4.4 22:18:57 23° ESE 22:21:12 38° ENE 22:25:29 10° N
Cosmos 1378 Rocket 3.5 22:17:32 10° N 22:21:50 67° E 22:24:19 24° SSE
TIMED 4.4 22:17:50 10° S 22:22:09 67° ESE 22:26:30 10° NNE
Cosmos 676 Rocket 4.0 22:16:57 10° NNW 22:22:09 70° ENE 22:25:21 24° SSE
NOSS 5 (C) 4.4 22:19:21 10° SSW 22:22:46 51° ESE 22:25:48 10° NE
ARGOS 3.4 22:19:51 22° SE 22:23:06 52° ENE 22:28:18 10° N
STPSAT 2 (USA 217) 4.5 22:19:09 10° SSW 22:23:35 69° ESE 22:28:05 10° NNE
ATLAS 5 CENTAUR R/B 2.9 22:18:06 10° NW 22:24:02 57° WSW 22:28:52 17° SSE
Cosmos 2056 Rocket 4.4 22:19:24 10° SW 22:24:25 51° WNW 22:29:26 10° N
Cosmos 1184 Rocket 3.2 22:24:38 35° SE 22:25:28 44° E 22:28:40 10° NNE
CZ-3C R/B 4.1 22:12:21 10° SW 22:26:48 19° SSW 22:30:50 14° S
CZ-4 R/B 4.2 22:23:58 10° NNE 22:28:24 40° E 22:30:17 27° SSE
Cosmos 1174 3.3 22:25:38 10° NNW 22:28:53 58° ENE 22:29:36 42° ESE
Cosmos 1954 Rocket 4.1 22:23:58 10° NNW 22:29:08 62° ENE 22:31:54 27° SE
Cosmos 1862 3.3 22:28:46 16° S 22:31:59 88° W 22:36:05 10° N
Cosmos 2278 Rocket 2.2 22:27:52 10° S 22:33:26 59° ESE 22:39:00 10° NNE
Cosmos 1844 3.7 22:30:41 10° SSW 22:36:26 87° WNW 22:42:17 10° NNE
CENTAUR R/B 4.0 22:30:05 10° NW 22:37:27 43° WSW 22:44:20 13° S
Cosmos 1833 Rocket 4.3 22:33:51 10° N 22:38:12 22° NE 22:40:56 16° E
Cosmos 1825 2.2 22:37:57 22° SSW 22:40:19 80° W 22:44:10 10° N
SL-27 R/B 4.1 22:37:21 10° NW 22:40:38 31° WSW 22:42:44 17° SSW
Cosmos 2084 3.1 22:37:52 16° SSW 22:40:50 60° ESE 22:44:36 10° NE
COSMOS 2487 2.5 22:40:29 10° NNW 22:44:05 65° ENE 22:44:48 50° SE
COS B Rocket 4.3 22:40:19 10° N 22:44:22 47° W 22:47:18 15° SSW
Cosmos 1844 Rocket 3.4 22:38:55 10° SW 22:44:28 56° WNW 22:50:02 10° NNE
H-2A R/B 3.8 22:41:26 10° SSW 22:45:11 28° W 22:48:54 10° NW
APEX 4.0 22:50:10 37° E 22:50:10 37° E 22:54:19 10° NE
CZ-4C R/B 3.6 22:51:49 44° ESE 22:52:25 48° ENE 22:56:18 10° N
Cosmos 2082 Rocket 3.1 22:47:58 10° N 22:53:11 35° ENE 22:55:25 26° E
YAOGAN 6 3.5 22:52:00 26° SSW 22:53:26 41° W 22:56:47 10° NNW
Cosmos 1408 3.4 22:52:39 21° SSW 22:54:52 50° W 22:58:27 10° N
Meteor 1-27 Rocket 4.5 22:51:32 10° NNW 22:56:52 48° W 23:00:51 17° SSW
Cosmos 2218 Rocket 4.1 22:59:14 31° SSE 23:02:22 65° E 23:08:42 10° NNE
Cosmos 1023 Rocket 4.3 22:58:46 10° NNW 23:03:54 85° ENE 23:05:34 44° SSE
Cosmos 2297 3.8 23:02:59 37° SSE 23:04:54 54° ESE 23:10:28 10° NNE
Okean 2 Rocket 3.3 23:02:50 28° SSW 23:05:05 68° W 23:09:30 10° N
Landsat 7 3.7 23:05:01 47° SSE 23:06:23 79° ENE 23:11:10 10° N
H-2A R/B 2.2 23:05:41 41° SE 23:07:31 68° ENE 23:12:50 10° N
Cosmos 1238 Rocket 4.0 23:06:54 10° NNW 23:09:42 29° W 23:10:41 25° SW
Cosmos 1242 Rocket 2.6 23:06:42 10° NNW 23:10:20 69° W 23:10:42 63° SW
DELTA 2 DEB (DPAF) 4.0 23:09:30 54° SSE 23:10:31 85° ENE 23:15:01 10° NNW
Cosmos 1420 Rocket 3.9 23:08:59 25° SSW 23:12:10 86° WNW 23:17:25 10° NNE
Cosmos 1727 Rocket 4.0 23:13:44 10° N 23:19:53 65° E 23:21:45 44° SE
Terra 1.7 23:21:17 59° SE 23:22:09 79° ENE 23:26:55 10° N
Spot 4 4.0 23:21:25 52° ESE 23:22:12 60° ENE 23:26:59 10° N
IGS 5A 3.3 23:25:17 76° ESE 23:25:26 78° ENE 23:29:37 10° N
ASTEX 1 3.8 23:20:57 10° NNE 23:25:41 44° E 23:25:46 44° E
Cosmos 1959 Rocket 4.4 23:22:50 33° SSW 23:25:47 83° W 23:31:55 10° N
Timation 2 Rocket 3.9 23:27:25 10° NNW 23:33:22 71° WSW 23:35:01 48° S
Cosmos 614 Rocket 3.8 23:28:31 10° NNW 23:33:38 80° WSW 23:34:27 62° S
Okean 1 4.1 23:31:20 10° N 23:34:40 41° NE 23:34:40 41° NE
SAR-Lupe-2 4.2 23:36:53 52° N 23:36:53 52° N 23:39:44 10° N
Cosmos 1140 Rocket 4.1 23:31:48 10° NNW 23:36:44 47° WSW 23:37:56 39° SW
DNEPR-1 R/B 3.8 23:35:32 10° NW 23:40:49 65° WSW 23:41:08 63° SW
Cosmos 2369 Rocket 4.3 23:46:17 12° ENE 23:46:17 12° ENE 23:47:20 10° ENE
BREEZE-M DEB (TANK) 4.4 23:42:31 10° NW 23:44:32 20° NNE 23:48:07 10° ENE
Meteor 1-20 Rocket 4.1 23:43:42 62° SSE 23:44:35 77° E 23:50:09 10° NNE
CARTOSAT-1 3.9 23:44:46 53° WSW 23:44:57 54° W 23:49:12 10° NNW
Cosmos 1339 Rocket 4.4 23:42:33 10° N 23:48:43 90° E 23:50:09 56° S
Meteor 1-25 Rocket 4.2 23:47:59 52° SSW 23:49:31 84° W 23:55:23 10° N
USA 234 3.4 23:43:27 10° NE 23:49:59 74° NW 23:56:28 10° WSW
